Content
SEND FEEDBACK

Daily
Averages
Monthly
Summary
United States of America

ST. LOUIS, MISSOURI


Home > North America > United States > Missouri
Elevation: 535 feet     Latitude: 38 45N     Longitude: 090 22W

WEATHER
 
SELECT A DAY
Number of Records: 201,261;   Date Range: 1/1/95 - 12/19/14
 
SHARE

PRINT THIS DATA

[ ← Previous Day ]
WEATHER ALMANAC - JANUARY 28, 2013
[ Next Day → ]
[ °C ]   °F
Weather ElementAverageHighLow
Temperature63.8 °F73.9 °F (2:54 pm)55.9 °F (12:54 am)
Dewpoint56.1 °F59 °F (12:54 pm)51.8 °F (1:43 am)
Humidity76.5 %87 % (12:54 am)59 % (2:54 pm)
Barometer29.90 in29.96 in (7:54 am)29.83 in (11:54 pm)
Wind Speed7.7 mph12.7 mph (3:54 pm)
Wind Gust21.9 mph (3:54 pm)
Weather ElementAverage
Visibility10 mi
Wind DirectionS (177.4 °)

Weather ElementTotal
Precipitation---
Heating Degree Days0.1 (Base 65)
Growing Degree Days14.9 (Base 50)
Averaged from 27 records on January 28, 2013
WEATHER CONDITIONS BREAKOUT
WIND DIRECTION BREAKOUT
WEATHER BY HOUR - JANUARY 28, 2013
[ °C ]   °F
Local TimeTemperatureDewpointHumidityBarometerVisibilityWind DirectionWind SpeedGust SpeedPrecipitationEventsConditions
12:54 AM55.9 °F52.0 °F87 %29.95 in10.0 miSouth (190°)10.4 mphOvercast
1:43 AM57.2 °F51.8 °F82 %29.94 in10.0 miSSW (200°)8.1 mphOvercast
1:54 AM57.0 °F52.0 °F83 %29.95 in10.0 miSSW (200°)8.1 mphOvercast
2:54 AM57.0 °F53.1 °F87 %29.94 in10.0 miSouth (190°)4.6 mphOvercast
3:54 AM59.0 °F54.0 °F83 %29.93 in10.0 miSSW (200°)3.5 mphOvercast
4:54 AM60.1 °F54.0 °F80 %29.92 in10.0 miSouth (190°)9.2 mphOvercast
5:54 AM61.0 °F55.0 °F81 %29.92 in10.0 miSSW (200°)11.5 mphOvercast
6:54 AM61.0 °F55.0 °F81 %29.93 in10.0 miSSW (200°)9.2 mphOvercast
7:09 AM60.8 °F55.4 °F82 %29.94 in10.0 miSW (220°)5.8 mphOvercast
7:54 AM60.1 °F55.0 °F83 %29.96 in10.0 miCalmOvercast
8:54 AM60.1 °F55.0 °F83 %29.96 in10.0 miSouth (170°)5.8 mph0.00 inOvercast
9:54 AM61.0 °F55.9 °F83 %29.96 in10.0 miSouth (170°)5.8 mphOvercast
10:44 AM62.6 °F57.2 °F82 %29.96 in10.0 miSSE (160°)6.9 mphOvercast
10:54 AM62.1 °F55.9 °F80 %29.96 in10.0 miSouth (170°)9.2 mphMostly Cloudy
11:54 AM64.9 °F57.9 °F78 %29.93 in10.0 miSSE (150°)6.9 mphOvercast
12:54 PM70.0 °F59.0 °F68 %29.89 in10.0 miSouth (190°)6.9 mphMostly Cloudy
1:54 PM73.0 °F59.0 °F61 %29.86 in10.0 miSSW (200°)11.5 mph17.3 mphOvercast
2:54 PM73.9 °F59.0 °F59 %29.86 in10.0 miSSW (200°)10.4 mph20.7 mphMostly Cloudy
3:54 PM73.0 °F57.9 °F59 %29.85 in10.0 miSouth (190°)12.7 mph21.9 mphClear
4:54 PM72.0 °F57.0 °F59 %29.85 in10.0 miSouth (180°)4.6 mphScattered Clouds
5:54 PM69.1 °F57.0 °F65 %29.85 in10.0 miSSE (160°)5.8 mphMostly Cloudy
6:54 PM68.0 °F57.0 °F68 %29.86 in10.0 miSouth (170°)9.2 mphClear
7:54 PM66.9 °F57.9 °F73 %29.86 in10.0 miSouth (180°)8.1 mphClear
8:54 PM64.9 °F57.9 °F78 %29.86 in10.0 miSouth (170°)6.9 mphClear
9:54 PM64.0 °F57.9 °F80 %29.86 in10.0 miSouth (180°)9.2 mph20.7 mphMostly Cloudy
10:54 PM64.0 °F57.9 °F80 %29.85 in10.0 miSouth (190°)10.4 mph18.4 mphClear
11:54 PM64.0 °F57.9 °F80 %29.83 in10.0 miSouth (170°)6.9 mphClear
Hourly data recorded from KSUS, located miles away from St. Louis, Missouri







STORIES FROM OUR PARTNERS